カタログに戻る

STARLINK-34294

運用中通信VLEO
NORAD 64599·PAYLOAD·🇺🇸 United States

打ち上げ Jun 25, 2025 から Cape Canaveral Space Force Station

Loading…

次のパス (今後24時間)

TLE

最新Source: CelesTrak SupGP

元期: Sep 15, 2026, 03:25 UTC

1 64599C 25137F   26258.14284722 -.00019870  00000+0 -58713-3 0  2585
2 64599  53.1576 172.5659 0001272  76.1781 112.1100 15.34397591    13

AllMySatでSTARLINK-34294をリアルタイム追跡

Download on the App Store